This is the latest recevied weather packets stored in our database for station/object KC9DRE. If no packets are shown the sender has not sent any weather packets the latest 10 day(s).
| Time | Temp. | Humidity | Pressure | Rain* | Wind** | Luminosity | Snow |
|---|---|---|---|---|---|---|---|
| 1787597382 | 27.22° C | 49% | 1019.3 hPa | 0 mm | - | 353 W/m² | - |
| 1787597077 | 26.67° C | 53% | 1019.3 hPa | 0 mm | - | 764 W/m² | - |
| 1787596774 | 26.11° C | 51% | 1019.4 hPa | 0 mm | - | 683 W/m² | - |
| 1787596469 | 26.67° C | 53% | 1019.3 hPa | 0 mm | - | 524 W/m² | - |
| 1787596164 | 27.22° C | 49% | 1019.5 hPa | 0 mm | - | 281 W/m² | - |
| 1787595861 | 27.78° C | 48% | 1019.6 hPa | 0 mm | - | 681 W/m² | - |
| 1787595556 | 27.78° C | 47% | 1019.4 hPa | 0 mm | - | 796 W/m² | - |
| 1787595252 | 28.89° C | 47% | 1019.5 hPa | 0 mm | - | 836 W/m² | - |
| 1787594951 | 28.33° C | 51% | 1019.5 hPa | 0 mm | - | 857 W/m² | - |
| 1787594646 | 27.78° C | 52% | 1019.4 hPa | 0 mm | - | 835 W/m² | - |
| 1787594344 | 27.78° C | 51% | 1019.3 hPa | 0 mm | - | 793 W/m² | - |
| 1787594040 | 27.22° C | 50% | 1019.4 hPa | 0 mm | - | 758 W/m² | - |
| 1787593739 | 27.22° C | 50% | 1019.4 hPa | 0 mm | - | 865 W/m² | - |
| 1787593434 | 27.22° C | 48% | 1019.2 hPa | 0 mm | - | 781 W/m² | - |
| 1787593130 | 27.22° C | 48% | 1019.3 hPa | 0 mm | - | 514 W/m² | - |
| 1787592829 | 27.22° C | 53% | 1019.4 hPa | 0 mm | - | 324 W/m² | - |
| 1787592524 | 27.78° C | 51% | 1019.1 hPa | 0 mm | - | 810 W/m² | - |
| 1787592223 | 27.78° C | 46% | 1019.1 hPa | 0 mm | - | 836 W/m² | - |
| 1787591920 | 27.78° C | 51% | 1019.1 hPa | 0 mm | - | 792 W/m² | - |
| 1787591615 | 27.22° C | 51% | 1019.4 hPa | 0 mm | - | 711 W/m² | - |
| 1787591311 | 26.67° C | 50% | 1019.1 hPa | 0 mm | - | 714 W/m² | - |
| 1787591006 | 26.67° C | 50% | 1019.3 hPa | 0 mm | - | 614 W/m² | - |
| 1787590702 | 27.22° C | 49% | 1019.2 hPa | 0 mm | - | 683 W/m² | - |
| 1787590397 | 27.22° C | 48% | 1019 hPa | 0 mm | - | 757 W/m² | - |
| 1787590093 | 26.11° C | 55% | 1019 hPa | 0 mm | - | 767 W/m² | - |
* Rain latest hour (hover to see other rain measurements)
** Current wind speed in m/s (hover to see current wind gust speed)